Weather History for Dayton Wright, OH

Change the Weather History Date:

Wednesday, February 13, 2013

  Actual Average (KFFO) Record (KFFO)
Temperature  
Mean Temperature 30 °F -  
Max Temperature 35 °F 39 °F 52 °F (2011)
Min Temperature 26 °F 23 °F 5 °F (2014)
Degree Days  
Heating Degree Days 34    
Moisture  
Dew Point 26 °F    
Average Humidity 88    
Maximum Humidity 100    
Minimum Humidity 67    
Precipitation  
Precipitation 0.00 in - - ()
Sea Level Pressure  
Sea Level Pressure 29.83 in    
Wind  
Wind Speed 7 mph (NNW)    
Max Wind Speed 12 mph    
Max Gust Speed -    
Visibility 5 miles    
Events Fog , Snow    
Averages and records for this station are not official NWS values.
T = Trace of Precipitation, MM = Missing Value Source: NWS Daily Summary

Daily Weather History Graph

Daily Weather History Graph

Search for Another Location

Airport:

Trip Planner

Search our weather history database for the weather conditions in past years. The results will help you decide how hot, cold, wet, or windy it might be!

Date:

Astronomy

Feb. 13, 2013 Rise Set
Actual Time 7:31 AM EST 6:11 PM EST
Civil Twilight 7:03 AM EST 6:39 PM EST
Nautical Twilight 6:32 AM EST 7:10 PM EST
Astronomical Twilight 6:00 AM EST 7:42 PM EST
Moon 9:01 AM EST (2/13) 10:12 PM EST (2/13)
Length of Visible Light 11h 35m
Length of Day
10h 40m
Waxing Crescent, 13% of the Moon is Illuminated
Feb 13
Waxing Crescent
Feb 17
First Quarter
Feb 25
Full
Mar 4
Last Quarter
Mar 11
New

Hourly Weather History & Observations

Time (EST) Temp. Windchill Dew Point Humidity Pressure Visibility Wind Dir Wind Speed Gust Speed Precip Events Conditions
12:53 AM 32.0 °F 24.8 °F 27.0 °F 82% 29.91 in 10.0 mi NNE 8.1 mph - N/A   Clear
1:53 AM 30.9 °F 23.5 °F 27.0 °F 85% 29.89 in 7.0 mi NNE 8.1 mph - N/A   Clear
2:53 AM 28.9 °F 22.8 °F 26.1 °F 89% 29.90 in 6.0 mi NNE 5.8 mph - N/A   Clear
3:53 AM 28.0 °F 22.8 °F 26.1 °F 92% 29.88 in 6.0 mi NE 4.6 mph - N/A   Partly Cloudy
4:53 AM 27.0 °F 18.7 °F 25.0 °F 92% 29.86 in 6.0 mi NNE 8.1 mph - N/A   Mostly Cloudy
5:19 AM 26.6 °F 16.2 °F 24.8 °F 93% 29.83 in 5.0 mi NNE 11.5 mph - N/A   Mostly Cloudy
5:28 AM 26.6 °F 16.8 °F 24.8 °F 93% 29.83 in 4.0 mi North 10.4 mph - N/A   Mostly Cloudy
5:38 AM 26.6 °F 18.2 °F 26.6 °F 100% 29.83 in 4.0 mi NNE 8.1 mph - N/A   Overcast
5:53 AM 27.0 °F 18.7 °F 26.1 °F 96% 29.83 in 4.0 mi NNE 8.1 mph - N/A   Overcast
6:21 AM 28.4 °F 21.2 °F 26.6 °F 93% 29.80 in 4.0 mi NNE 6.9 mph - N/A   Overcast
6:53 AM 28.0 °F 19.3 °F 26.1 °F 92% 29.80 in 5.0 mi NNE 9.2 mph - N/A   Overcast
7:53 AM 28.0 °F 20.8 °F 26.1 °F 92% 29.79 in 3.0 mi NNE 6.9 mph - N/A   Overcast
8:53 AM 28.9 °F 22.8 °F 25.0 °F 85% 29.82 in 5.0 mi North 5.8 mph - N/A   Overcast
9:03 AM 28.4 °F 23.3 °F 24.8 °F 86% 29.81 in 5.0 mi North 4.6 mph - N/A   Overcast
9:53 AM 28.9 °F 21.9 °F 25.0 °F 85% 29.85 in 5.0 mi NNW 6.9 mph - N/A   Overcast
10:53 AM 28.9 °F 23.9 °F 24.1 °F 82% 29.84 in 6.0 mi NW 4.6 mph - N/A   Haze
11:38 AM 28.4 °F 23.3 °F 24.8 °F 86% 29.81 in 1.8 mi NNW 4.6 mph - 0.00 in Snow Light Snow
11:48 AM 28.4 °F - 26.6 °F 93% 29.80 in 0.5 mi Calm Calm - 0.00 in Fog , Snow Snow
11:49 AM 28.9 °F - 26.1 °F 89% 29.83 in 0.5 mi Calm Calm - 0.00 in Fog , Snow Snow
11:56 AM 28.4 °F - 26.6 °F 93% 29.79 in 0.8 mi Calm Calm - 0.00 in Snow Light Snow
12:16 PM 28.4 °F - 26.6 °F 93% 29.78 in 1.2 mi Calm Calm - 0.00 in Snow Light Snow
12:24 PM 28.4 °F - 26.6 °F 93% 29.78 in 2.0 mi Calm Calm - 0.00 in Snow Light Snow
12:33 PM 28.4 °F 23.3 °F 26.6 °F 93% 29.78 in 2.0 mi NW 4.6 mph - 0.00 in Snow Light Snow
12:53 PM 28.9 °F 21.9 °F 27.0 °F 92% 29.80 in 4.0 mi WNW 6.9 mph - 0.00 in   Overcast
1:31 PM 30.2 °F 25.4 °F 26.6 °F 86% 29.76 in 5.0 mi West 4.6 mph - N/A   Overcast
1:53 PM 30.9 °F 24.3 °F 27.0 °F 85% 29.79 in 5.0 mi NW 6.9 mph - N/A   Overcast
2:39 PM 30.2 °F 23.4 °F 26.6 °F 86% 29.76 in 7.0 mi WNW 6.9 mph - N/A   Overcast
2:53 PM 30.9 °F 22.8 °F 26.1 °F 82% 29.79 in 7.0 mi NNW 9.2 mph - N/A   Overcast
3:53 PM 33.1 °F 26.9 °F 26.1 °F 75% 29.80 in 9.0 mi West 6.9 mph - N/A   Scattered Clouds
4:53 PM 35.1 °F 32.2 °F 25.0 °F 67% 29.81 in 10.0 mi WSW 3.5 mph - N/A   Clear
5:53 PM 34.0 °F 29.8 °F 25.0 °F 70% 29.82 in 10.0 mi SW 4.6 mph - N/A   Clear
6:53 PM 30.9 °F 24.3 °F 26.1 °F 82% 29.85 in 9.0 mi SSW 6.9 mph - N/A   Clear
7:53 PM 28.0 °F 20.0 °F 26.1 °F 92% 29.87 in 7.0 mi South 8.1 mph - N/A   Clear
8:53 PM 27.0 °F 18.7 °F 25.0 °F 92% 29.88 in 5.0 mi South 8.1 mph - N/A   Clear
9:53 PM 28.9 °F 21.9 °F 26.1 °F 89% 29.90 in 5.0 mi SSW 6.9 mph - N/A   Clear
10:53 PM 28.0 °F 20.8 °F 26.1 °F 92% 29.89 in 6.0 mi SSW 6.9 mph - N/A   Partly Cloudy
11:53 PM 27.0 °F 19.5 °F 25.0 °F 92% 29.90 in 6.0 mi SSW 6.9 mph - N/A   Clear